Погода в Калуке

Россия / Республика Дагестан     41°28′16″N   47°39′21″E
темп.,
°C
ветер,
м/с
пор.,
м/с
влажн.,
%
обл.,
%
осадки,
мм/ч
давл.,
гПа
погр.,
м
11 мая, вт
вт1100:00−6зсз338723 0.0 102744
03:00−6зсз33823 0.0 102532
06:00+2ссв01725 0.0 1019133
09:00+8вюв22623 0.0 1014515
12:00+10в43623 0.0 1013630
15:00+10в436916 0.0 1012514
18:00+8вюв108120 0.0 1013118
21:00+6зюз22660 0.0 101320
12 мая, ср
ср1200:00+7з44560 0.0 101347
03:00+7з45580 0.0 101356
06:00+10з35600 0.0 101380
09:00+18всв13310 0.0 10111268
12:00+16в34520 0.0 10121117
15:00+16в33572 0.0 1013934
18:00+13вюв11730 0.0 101480
21:00+10з44422 0.0 101640
13 мая, чт
чт1300:00+10з44360 0.0 101642
03:00+9з55401 0.0 101658
06:00+11з45510 0.0 101680
09:00+20ссз13250 0.0 10141864
12:00+21в443431 0.0 10131753
15:00+20всв333933 0.0 10141271
18:00+16вюв22696 0.2 101560
21:00+12зюз34595 0.3 101842
14 мая, пт
пт1400:00+11з45540 0.0 101851
03:00+10з45551 0.0 101860
06:00+12з35566 0.0 101884
09:00+20ссв023014 0.0 10161663
12:00+21в443936 0.0 10151800
15:00+19ссв224883 1.4 10161265
18:00+17вюв116470 0.8 101621
21:00+13зюз336691 0.9 101842
15 мая, сб
сб1500:00+11з447083 0.0 101860
03:00+10з456859 0.0 101867
06:00+12з44655 0.0 1017117
09:00+19св11380 0.0 10151193
12:00+20в53492 0.1 10141443
15:00+17с1256100 1.8 10151101
18:00+12з3472100 0.7 1017148
21:00+10з347176 0.7 101847